Hourly Weather Roundup
Issued by NWS Central Illinois

Home | Current Version | Previous Version | Text Only | Print | Product List | Glossary On
Versions: 1 2 3 4 5 6 7 8 9 10 11 12 13 14 15 16 17 18 19 20 21 22 23 24 25 26 27 28 29 30 31 32 33 34 35 36 37 38 39 40 41 42 43 44 45 46 47 48 49 50
000
NZUS43 KILX 232310
HWRILX

AREA WEATHER ROUNDUP
NATIONAL WEATHER SERVICE, LINCOLN IL
600 PM CDT MON MAY 23 2016


CITY           SKY/WX    TMP DP  RH WIND       PRES   REMARKS
BLOOMINGTON    CLOUDY    83  48  29 S9        29.94F HX  81
CHAMPAIGN      SUNNY     80  40  23 S12       29.95S
DANVILLE       SUNNY     81  40  23 S10       29.93F
DECATUR        CLOUDY    82  51  34 S9        29.94S HX  81
EFFINGHAM      CLOUDY    80  54  39 SE5       29.96F HX  80
FLORA          SUNNY     82  53  35 S6        29.95F HX  81
GALESBURG      CLOUDY    80  47  31 S14       29.90S
JACKSONVILLE   SUNNY     82  45  26 S12G20    29.92S HX  81
LACON          CLOUDY    83  47  28 SW8       29.90S HX  81
LAWRENCEVILLE  SUNNY     79  45  29 SW3       29.96F
LITCHFIELD     SUNNY     81  47  30 S10       29.94S HX  80
$$


CITY           SKY/WX    TMP DP  RH WIND       PRES   REMARKS
LINCOLN        SUNNY     85  50  29 S8        29.91F HX  82
MACOMB         CLOUDY    82  44  26 S9        29.93S HX  80
MATTOON        CLOUDY    78  47  33 S6        29.95F
MT CARMEL AP   SUNNY     80  41  25 S3        29.96S
OLNEY-NOBLE AP CLOUDY    79  46  31 SE5       29.95F
PARIS          SUNNY     80  42  26 S6        29.97S
PEORIA         CLOUDY    83  48  29 S13       29.90F HX  81
PONTIAC        SUNNY     84  45  25 S10       29.93S HX  81
RANTOUL        SUNNY     83  42  23 S6        29.94F HX  81
ROBINSON       SUNNY     76  50  39 S3        29.97F
SPRINGFIELD    SUNNY     85  46  25 S13       29.92F HX  82
TAYLORVILLE    MOSUNNY   82  50  32 S8        29.93F HX  81
$$

...REGIONAL REPORTS...


CITY           SKY/WX    TMP DP  RH WIND       PRES   REMARKS
CHICAGO O`HARE MOSUNNY   80  44  27 S8        29.92F
KANKAKEE       SUNNY    N/A N/A N/A SE12      29.93F
MOLINE         CLOUDY    84  44  24 S13       29.87F HX  82
MOUNT STERLING CLOUDY    79  51  37 SW8       29.91F
MOUNT VERNON   MOSUNNY   82  54  36 W5        29.95F HX  81
PITTSFIELD     SUNNY     81  49  33 S8        29.93S HX  80
QUINCY         CLOUDY    79  49  34 S8        29.91F
ROCKFORD       PTSUNNY   83  44  25 SW10      29.91F HX  81
$$


CITY           SKY/WX    TMP DP  RH WIND       PRES   REMARKS
BURLINGTON     MOSUNNY   79  50  36 SW10      29.89F
CEDAR RAPIDS   MOSUNNY   79  52  38 S15       29.86S
DES MOINES     CLOUDY    73  60  63 S8        29.84F
KIRKSVILLE     CLOUDY    76  58  53 S12       29.88F
OTTUMWA        CLOUDY    79  56  45 S14       29.85F HX  80
ST LOUIS       CLOUDY    82  49  31 S9        29.93F HX  81
$$


CITY           SKY/WX    TMP DP  RH WIND       PRES   REMARKS
TERRE HAUTE    SUNNY     78  45  30 S9        29.96F
EVANSVILLE     SUNNY     80  42  25 E3        29.96F
INDIANAPOLIS   SUNNY     76  38  25 SE6       29.98S
LAFAYETTE      SUNNY     77  38  24 SE7       29.95F
MADISON        CLOUDY    81  46  29 S13       29.87F HX  80
MILWAUKEE      MOSUNNY   75  41  29 S12       29.92F
$$






USA.gov is the U.S. government's official web portal to all federal, state and local government web resources and services.